Location: Newark
(31.5350°N, 35.0986°E)
Time: 21:32:12
(UTC+00:00)

Vanguard 1 - Pass Details

Date: 28 September 2019
Orbit: 653 x 3830 km, 34.2° (Epoch: 17 October)

Event Time Altitude Azimuth Distance (km) Brightness Sun altitude
Rises 05:26:39 0° 289° (WNW) 7,468 14.0 23.3°
Reaches altitude 10° 05:33:08 10° 281° (W) 6,006 13.6 24.6°
Maximum altitude 05:46:26 29° 230° (SW) 3,438 12.8 27.3°
Drops below altitude 10° 05:54:57 10° 174° (S) 3,744 13.5 29.0°
Sets 05:57:56 0° 162° (SSE) 4,356 13.9 29.6°
